Weather History for Branson, MO

Change the Weather History Date:

Saturday, June 1, 2013

  Actual Average (KHRO) Record (KHRO)
Temperature  
Mean Temperature 68 °F 70 °F  
Max Temperature 75 °F 81 °F 101 °F (1913)
Min Temperature 60 °F 59 °F 43 °F (1966)
Degree Days  
Heating Degree Days 0 1  
Month to date heating degree days 1  
Since 1 June heating degree days 1  
Since 1 July heating degree days 3999  
Cooling Degree Days 4 6  
Month to date cooling degree days 6  
Year to date cooling degree days 145  
Since 1 June cooling degree days 6  
Growing Degree Days 18 (Base 50)    
Moisture  
Dew Point 62 °F    
Average Humidity 84    
Maximum Humidity 100    
Minimum Humidity 68    
Precipitation  
Precipitation 0.30 in 0.14 in 2.79 in (1959)
Month to date precipitation 0.14  
Year to date precipitation 18.14  
Snow  
Snow 0.00 in 0.00 in - ()
Month to date snowfall 0.0  
Since 1 June snowfall 0.0  
Since 1 July snowfall 11.5  
Snow Depth -    
Sea Level Pressure  
Sea Level Pressure 29.88 in    
Wind  
Wind Speed 6 mph (West)    
Max Wind Speed 14 mph    
Max Gust Speed 21 mph    
Visibility 9 miles    
Events Rain , Thunderstorm    
T = Trace of Precipitation, MM = Missing Value Source: NWS Daily Summary

Daily Weather History Graph

Daily Weather History Graph

Search for Another Location

Airport:

Trip Planner

Search our weather history database for the weather conditions in past years. The results will help you decide how hot, cold, wet, or windy it might be!

Date:

Astronomy

Jun. 01, 2013 Rise Set
Actual Time 5:55 AM CDT 8:25 PM CDT
Civil Twilight 5:25 AM CDT 8:55 PM CDT
Nautical Twilight 4:48 AM CDT 9:33 PM CDT
Astronomical Twilight 4:07 AM CDT 10:14 PM CDT
Moon 1:41 AM CDT (6/1) 2:05 PM CDT (6/1)
Length of Visible Light 15h 29m
Length of Day
14h 29m
Last Quarter, 40% of the Moon is Illuminated
Jun 1
Last Quarter
Jun 8
New
Jun 16
First Quarter
Jun 23
Full
Jun 29
Last Quarter

Hourly Weather History & Observations

Time (CDT) Temp. Dew Point Humidity Pressure Visibility Wind Dir Wind Speed Gust Speed Precip Events Conditions
12:15 AM 73.4 °F 69.8 °F 88% 29.82 in 10.0 mi ENE 5.8 mph - N/A   Mostly Cloudy
12:35 AM 73.4 °F 69.8 °F 88% 29.83 in 10.0 mi Calm Calm - N/A   Mostly Cloudy
12:55 AM 71.6 °F 69.8 °F 94% 29.82 in 10.0 mi NNE 3.5 mph - N/A   Overcast
1:15 AM 71.6 °F 68.0 °F 88% 29.80 in 10.0 mi East 3.5 mph - N/A   Overcast
1:35 AM 69.8 °F 66.2 °F 88% 29.78 in 10.0 mi NNW 4.6 mph - N/A   Overcast
1:55 AM 68.0 °F 66.2 °F 94% 29.77 in 10.0 mi NNE 8.1 mph - N/A   Overcast
2:15 AM 66.2 °F 62.6 °F 88% 29.81 in 10.0 mi NE 5.8 mph - N/A   Overcast
2:35 AM 66.2 °F 64.4 °F 94% 29.78 in 10.0 mi ESE 5.8 mph - N/A Thunderstorm Overcast
2:55 AM 68.0 °F 64.4 °F 88% 29.80 in 10.0 mi Calm Calm - N/A Thunderstorm Overcast
3:15 AM 68.0 °F 64.4 °F 88% 29.80 in 8.0 mi South 5.8 mph - N/A Rain , Thunderstorm Light Thunderstorms and Rain
3:35 AM 71.6 °F 64.4 °F 78% 29.80 in 3.0 mi West 9.2 mph 19.6 mph 0.04 in Rain , Thunderstorm Thunderstorms and Rain
3:55 AM 69.8 °F 62.6 °F 78% 29.79 in 9.0 mi SSW 8.1 mph 17.3 mph 0.06 in Rain , Thunderstorm Light Thunderstorms and Rain
4:15 AM 68.0 °F 62.6 °F 83% 29.82 in 9.0 mi South 9.2 mph 16.1 mph N/A Rain , Thunderstorm Light Rain
4:35 AM 66.2 °F 62.6 °F 88% 29.82 in 3.0 mi SSW 10.4 mph 19.6 mph 0.03 in Rain Rain
4:55 AM 66.2 °F 62.6 °F 88% 29.80 in 7.0 mi SSE 9.2 mph - 0.06 in Rain , Thunderstorm Light Thunderstorms and Rain
5:15 AM 64.4 °F 62.6 °F 94% 29.81 in 10.0 mi South 8.1 mph - N/A Rain , Thunderstorm Light Rain
5:35 AM 64.4 °F 62.6 °F 94% 29.84 in 4.0 mi South 8.1 mph - 0.02 in Rain , Thunderstorm Light Thunderstorms and Rain
5:55 AM 64.4 °F 62.6 °F 94% 29.84 in 4.0 mi South 5.8 mph - 0.06 in Rain Rain
6:15 AM 64.4 °F 60.8 °F 88% 29.90 in 3.0 mi West 4.6 mph - 0.05 in Rain Rain
6:35 AM 64.4 °F 62.6 °F 94% 29.91 in 4.0 mi NW 4.6 mph - 0.12 in Rain Rain
6:54 AM 64.4 °F 62.6 °F 94% 29.91 in 5.0 mi Calm Calm - N/A Rain , Thunderstorm Light Thunderstorms and Rain
7:45 AM 62.6 °F 62.6 °F 100% 29.83 in 5.0 mi SE 13.8 mph 19.6 mph N/A Rain , Thunderstorm Light Thunderstorms and Rain
8:45 AM 62.6 °F 62.6 °F 100% 29.80 in 5.0 mi SE 13.8 mph 20.7 mph N/A Rain Light Rain
9:45 AM 62.6 °F 62.6 °F 100% 29.78 in 10.0 mi SSE 12.7 mph 17.3 mph N/A   Overcast
10:45 AM 64.4 °F 62.6 °F 94% 29.87 in 10.0 mi WNW 5.8 mph - N/A   Overcast
11:52 AM 66.2 °F 64.4 °F 94% 29.91 in 10.0 mi WSW 4.6 mph - N/A   Overcast
12:54 PM 68.0 °F 64.4 °F 88% 29.91 in 10.0 mi West 5.8 mph - N/A   Overcast
1:45 PM 69.8 °F 64.4 °F 83% 29.92 in 10.0 mi West 6.9 mph - N/A   Overcast
2:48 PM 71.6 °F 64.4 °F 78% 29.91 in 10.0 mi SSW 6.9 mph 18.4 mph N/A   Overcast
3:45 PM 73.4 °F 62.6 °F 69% 29.92 in 10.0 mi WSW 6.9 mph 18.4 mph N/A   Overcast
4:47 PM 73.4 °F 62.6 °F 69% 29.91 in 10.0 mi WSW 9.2 mph - N/A   Mostly Cloudy
5:47 PM 75.2 °F 64.4 °F 69% 29.90 in 10.0 mi WSW 5.8 mph - N/A   Mostly Cloudy
6:51 PM 73.4 °F 62.6 °F 69% 29.90 in 10.0 mi WNW 9.2 mph 16.1 mph N/A   Mostly Cloudy
7:48 PM 69.8 °F 59.0 °F 68% 29.92 in 10.0 mi NW 8.1 mph - N/A   Mostly Cloudy
8:46 PM 68.0 °F 57.2 °F 68% 29.95 in 10.0 mi NW 9.2 mph - N/A   Mostly Cloudy
9:15 PM 66.2 °F 57.2 °F 73% 29.96 in 10.0 mi NW 6.9 mph - N/A   Scattered Clouds
9:35 PM 66.2 °F 57.2 °F 73% 29.97 in 10.0 mi NW 8.1 mph - N/A   Clear
9:55 PM 64.4 °F 55.4 °F 73% 29.98 in 10.0 mi WNW 5.8 mph - N/A   Clear
10:15 PM 64.4 °F 55.4 °F 73% 29.99 in 10.0 mi NW 6.9 mph - N/A   Scattered Clouds
10:35 PM 64.4 °F 55.4 °F 73% 30.00 in 10.0 mi NW 8.1 mph - N/A   Scattered Clouds
10:55 PM 64.4 °F 55.4 °F 73% 30.00 in 10.0 mi NW 8.1 mph - N/A   Clear
11:15 PM 62.6 °F 55.4 °F 77% 30.00 in 10.0 mi NW 6.9 mph - N/A   Clear
11:35 PM 62.6 °F 55.4 °F 77% 29.99 in 10.0 mi WNW 5.8 mph - N/A   Clear
11:55 PM 60.8 °F 55.4 °F 82% 30.00 in 10.0 mi WNW 3.5 mph - N/A   Clear